Location: Firdgum
(53.2488°N, 5.5615°E)
Time: 12:03:58
(UTC+00:00)

SJ-7 - Pass Details

Date: 08 December 2019
Orbit: 556 x 603 km, 97.7° (Epoch: 25 January)

Event Time Altitude Azimuth Distance (km) Brightness Sun altitude
Rises 05:39:44 0° 14° (NNE) 2,792 7.9 -16.5°
Reaches altitude 10° 05:41:54 10° 16° (NNE) 1,882 7.0 -16.2°
Maximum altitude 05:45:59 80° 103° (ESE) 579 4.4 -15.6°
Drops below altitude 10° 05:49:59 10° 192° (SSW) 1,846 7.1 -15.0°
Sets 05:52:06 0° 193° (SSW) 2,733 7.9 -14.7°
